Terminal Aerodrome Forecast
Issued by NWS St Louis, MO

Home | Current Version | Previous Version | Text Only | Print | Product List | Glossary On
Versions: 1 2 3 4 5 6 7 8 9 10 11 12 13 14 15 16 17 18 19 20 21 22 23 24 25 26
000
FTUS43 KLSX 180000 AAA
TAFSTL
TAF AMD
KSTL 180009Z 1800/1906 09006KT P6SM SCT018 OVC030
      TEMPO 1800/1803 5SM -DZ BR OVC018
     FM180900 09004KT 4SM BR BKN035
     FM181400 09007KT P6SM SCT040=

USA.gov is the U.S. government's official web portal to all federal, state and local government web resources and services.